Weather History for KIRK - February, 2013

Change the Weather History Date:

Tuesday, February 12, 2013

  Actual Average Record
Temperature  
Mean Temperature 31 °F 29 °F  
Max Temperature 43 °F 38 °F - ()
Min Temperature 18 °F 20 °F - ()
Degree Days  
Heating Degree Days 34 36  
Month to date heating degree days 403 447  
Since 1 July heating degree days 3779 3994  
Cooling Degree Days 0 0  
Month to date cooling degree days 0 0  
Year to date cooling degree days 0 0  
Moisture  
Dew Point 22 °F    
Average Humidity 73    
Maximum Humidity 100    
Minimum Humidity 45    
Precipitation  
Precipitation 0.00 in 0.06 in - ()
Month to date precipitation 0.99 0.67  
Year to date precipitation 3.09 1.94  
Sea Level Pressure  
Sea Level Pressure 30.09 in    
Wind  
Wind Speed 4 mph (SW)    
Max Wind Speed 9 mph    
Max Gust Speed 13 mph    
Visibility 8 miles    
Events      
T = Trace of Precipitation, MM = Missing Value Source: NWS Daily Summary

Daily Weather History Graph

Daily Weather History Graph

Search for Another Location

Airport or City:

Trip Planner

Search our weather history database for the weather conditions in past years. The results will help you decide how hot, cold, wet, or windy it might be!

Date:

Astronomy

Feb. 12, 2013 Rise Set
Actual Time 7:06 AM CST 5:42 PM CST
Civil Twilight 6:38 AM CST 6:10 PM CST
Nautical Twilight 6:06 AM CST 6:42 PM CST
Astronomical Twilight 5:35 AM CST 7:14 PM CST
Moon 8:03 AM CST (2/12) 8:44 PM CST (2/12)
Length of Visible Light 11h 32m
Length of Day
10h 36m
Waxing Crescent, 7% of the Moon is Illuminated
Feb 12
Waxing Crescent
Feb 17
First Quarter
Feb 25
Full
Mar 4
Last Quarter
Mar 11
New

Hourly Weather History & Observations

Time (CST) Temp. Windchill Dew Point Humidity Pressure Visibility Wind Dir Wind Speed Gust Speed Precip Events Conditions
12:55 AM 26.1 °F 20.5 °F 21.9 °F 84% 30.18 in 9.0 mi WNW 4.6 mph - N/A   Clear
1:55 AM 23.0 °F 18.4 °F 19.9 °F 88% 30.19 in 8.0 mi WNW 3.5 mph - N/A   Clear
2:55 AM 21.0 °F 16.2 °F 18.0 °F 88% 30.19 in 6.0 mi WSW 3.5 mph - N/A   Clear
3:55 AM 21.9 °F - 19.9 °F 92% 30.17 in 6.0 mi Calm Calm - N/A   Clear
4:55 AM 19.0 °F 13.9 °F 17.1 °F 92% 30.17 in 5.0 mi West 3.5 mph - N/A   Clear
5:55 AM 19.9 °F - 18.0 °F 92% 30.18 in 4.0 mi Calm Calm - N/A   Clear
6:55 AM 18.0 °F 12.7 °F 16.0 °F 92% 30.19 in 5.0 mi West 3.5 mph - N/A   Clear
7:55 AM 21.9 °F - 21.0 °F 96% 30.19 in 4.0 mi Calm Calm - N/A   Clear
8:55 AM 28.0 °F 24.2 °F 24.1 °F 85% 30.18 in 6.0 mi WNW 3.5 mph - N/A   Clear
9:55 AM 30.9 °F - 24.1 °F 76% 30.15 in 10.0 mi Calm Calm - N/A   Clear
10:55 AM 34.0 °F - 23.0 °F 64% 30.14 in 10.0 mi Calm Calm - N/A   Clear
11:55 AM 37.0 °F 33.3 °F 23.0 °F 57% 30.13 in - Variable 4.6 mph - N/A   Clear
12:55 PM - - - N/A% 30.06 in 10.0 mi North - - N/A   Clear
1:55 PM 41.0 °F 37.1 °F 21.9 °F 47% 30.08 in 10.0 mi Variable 5.8 mph - N/A   Clear
2:55 PM 42.1 °F 37.7 °F 25.0 °F 51% 30.06 in 10.0 mi SSW 6.9 mph - N/A   Clear
3:55 PM 42.1 °F 38.4 °F 24.1 °F 49% 30.03 in 10.0 mi South 5.8 mph - N/A   Clear
4:55 PM 39.0 °F 35.7 °F 24.1 °F 55% 30.01 in 10.0 mi SSW 4.6 mph - N/A   Clear
5:55 PM 35.1 °F 31.0 °F 26.1 °F 70% 30.01 in 10.0 mi South 4.6 mph - N/A   Clear
6:55 PM 32.0 °F 26.4 °F 26.1 °F 79% 30.01 in 10.0 mi SSW 5.8 mph - N/A   Clear
7:55 PM 30.0 °F 24.1 °F 25.0 °F 82% 30.01 in 10.0 mi SSW 5.8 mph - N/A   Clear
8:55 PM 32.0 °F 26.4 °F 25.0 °F 75% 30.00 in 10.0 mi SW 5.8 mph - N/A   Clear
9:55 PM 28.9 °F 25.2 °F 25.0 °F 85% 29.99 in 10.0 mi SW 3.5 mph - N/A   Clear
10:55 PM 28.0 °F 22.8 °F 24.1 °F 85% 29.98 in 9.0 mi SW 4.6 mph - N/A   Clear
11:55 PM 28.0 °F 22.8 °F 24.1 °F 85% 29.97 in 8.0 mi SW 4.6 mph - N/A   Clear